www.pogodaiklimat.ru

Погода и климат >> Архив погоды >> Россия >> Калининградская область >> Мамоново


ПОГОДА в Мамоново

  • Прогноз погоды в Мамоново
  • Монитор погоды в Мамоново

АРХИВ ПОГОДЫ в Мамоново

Время (UTC), дата Ветер
(напр.,м/с)
 
Видим.   Явления Облачность Т
(С)
Тd
(С)
f
(%)
Тe
(С)
Тes
(С)
Комфортность P
(гПа)
Po
(гПа)
Тmin
(С)
Tmax
(С)
R
(мм)
R24
(мм)
S
(см)
15 13.09 СЗ 7-12
{14}
10 км {ливн. осадки} 8/8 300 м
[Sc]
+17.5 +11.4 67 +17 +17 1023.2 1020.4 4
18 13.09 З 6-11
{14}
10 км {ливн. осадки} 6/6 300 м
[Sc]
+15.8 +9.2 65 +14 +14 1024.7 1021.8 +19.8 0.4
21 13.09 СЗ 5-10
{12}
10 км 6/6 300 м
[Sc]
+15.7 +9.7 67 +15 +15 1025.6 1022.7
00 14.09 СЗ 5-10
{10}
10 км 8/8 300 м
[Sc]
+15.4 +9.2 67 +14 +14 1026.6 1023.7
03 14.09 СЗ 4-8
{11}
10 км 8/8 300 м
[Sc]
+14.2 +8.5 69 +13 +13 1027.0 1024.1 +14.0
06 14.09 З 5-9
{9}
10 км 9/9 300 м
[Sc]
+15.1 +10.5 74 +14 +14 1028.3 1025.4 +13.9
09 14.09 З 5-9
{11}
10 км {ливн. осадки} 9/9 300 м
[Sc]
+16.5 +11.3 71 +16 +16 1029.3 1026.4
12 14.09 З 5-11
{11}
10 км {ливн. осадки} 8/8 300 м
[Sc]
+17.4 +9.5 60 +17 +18 1029.0 1026.2
15 14.09 З 4-6
{11}
10 км 9/9 300 м
[Sc]
+16.6 +10.3 66 +16 +16 1028.3 1025.4 0.6
18 14.09 З 3-6
{9}
10 км 6/6 300 м
[Sc]
+13.5 +8.8 73 +12 +12 1027.5 1024.6 +18.1 0.6
21 14.09 ЮЗ 3-5
{7}
10 км 6/6 300 м
[Sc]
+12.5 +9.1 80 +11 +11 1026.9 1024.0
00 15.09 ЮЗ 3-5
{6}
10 км 6/6 300 м
[Sc]
+10.7 +8.5 86 +9 +9 1025.0 1022.1
03 15.09 ЮЗ 2-3
{5}
10 км 6/6 300 м
[Sc]
+8.8 +6.9 88 +7 +7 1022.9 1020.0 +8.6
06 15.09 Ю 4-5
{7}
10 км 8/8 300 м
[Sc]
+10.4 +7.2 81 +8 +8 1019.8 1016.9 +8.6
09 15.09 ЮЗ 7-12
{12}
10 км 10/10 300 м
[Sc]
+16.2 +7.8 57 +15 +15 1016.2 1013.4
12 15.09 ЮЗ 7-11
{14}
10 км 8/4 300 м
[Sc Ci fib]
+19.0 +7.8 48 +19 +20 1012.6 1009.8
15 15.09 З 4-9
{13}
4000 м слаб. ливневой дождь 10/10 300 м
[Cb cap]
+17.3 +10.1 63 +17 +17 1011.3 1008.5 0.0
18 15.09 З 5-10
{13}
10 км {ливн. осадки} 10/10 300 м
[Sc]
+16.3 +11.9 75 +15 +15 1010.7 1007.9 +20.2 0.4
21 15.09 З 4-9
{11}
10 км 9/9 300 м
[Sc]
+15.5 +11.4 77 +15 +15 1009.6 1006.8
00 16.09 З 6-12
{15}
10 км 9/9 300 м
[Sc]
+14.5 +7.1 61 +13 +13 1009.9 1007.1
03 16.09 З 7-13
{14}
10 км 9/9 300 м
[Cu Sc]
+14.1 +7.6 65 +12 +12 1009.8 1007.0 +14.1 0.4
06 16.09 З 6-11
{15}
10 км 9/9 300 м
[Cu Sc]
+14.3 +9.0 70 +12 +12 1009.7 1006.9 +13.8
09 16.09 З 6-12
{14}
10 км 9/8 300 м
[Cu Sc Ci fib]
+15.8 +9.3 65 +14 +15 1010.5 1007.7
12 16.09 З 7-12
{14}
10 км 8/8 300 м
[Cu Sc]
+16.3 +7.7 57 +15 +15 1010.8 1008.0
15 16.09 З 6-12
{14}
10 км 4/4 300 м
[Cu med, cong]
+15.6 +5.9 52 +14 +15 1010.4 1007.6
18 16.09 З 7-14
{14}
10 км 8/8 300 м
[Cu Sc]
+13.9 +6.9 63 +12 +12 1009.8 1007.0 +18.0
21 16.09 З 5-9
{14}
10 км слаб. ливневой снег 10/10 300 м
[]
+11.9 +8.7 81 +9 +9 1009.5 1006.6
00 17.09 -10
{12}
10 км {ливн. осадки} н/о +13.3 +7.3 67 +11 +11 1008.9 1006.1
03 17.09 ЮЗ 3-6
{12}
4000 м слаб. ливневой дождь 10/10 300 м
[Cb cap]
+9.9 +9.3 96 +8 +8 1008.5 1005.6 +9.8 2
06 17.09 ЮЗ 4-7
{8}
4000 м слаб. ливневой дождь 10/10 300 м
[Cb cap]
+9.9 +9.1 95 +7 +7 1007.4 1004.5 +9.0 6
09 17.09 З 5-11
{12}
10 км {ливн. осадки} 8/8 300 м
[Sc]
+13.1 +9.4 78 +11 +12 1005.8 1003.0
12 17.09 ЮЗ 6-12
{14}
4000 м слаб. ливневой дождь 10/10 300 м
[Cb cap]
+10.0 +8.9 93 +6 +6 1004.4 1001.5
15 17.09 ЮЗ 2-4
{11}
10 км {ливн. осадки} 10/10 300 м
[Sc]
+9.3 +7.9 91 +8 +8 1002.2 999.3 5
18 17.09 ЮЗ 2-5
{12}
10 км в посл. час ливневой дождь 10/10 300 м
[Sc]
+7.9 +6.6 91 +6 +6 1001.1 998.2 +14.6 6
21 17.09 З 4-7
{14}
4000 м слаб. ливневой дождь 10/10 300 м
[Cb cap]
+7.7 +7.0 95 +4 +4 1000.6 997.7
00 18.09 ЮЗ 2-5
{11}
10 км {ливн. осадки} 10/10 300 м
[Sc]
+8.9 +7.3 90 +7 +7 1000.7 997.8
03 18.09 СЗ 7-13
{14}
4000 м слаб. ливневой дождь 10/10 300 м
[Cb cap]
+10.8 +7.7 81 +7 +7 1003.4 1000.6 +6.7 11
06 18.09 С 6-11
{17}
4000 м слаб. ливневой дождь 10/10 300 м
[Cb cap]
+10.8 +7.7 81 +8 +8 1007.4 1004.5 +6.7 10
09 18.09 СЗ 6-11
{14}
4000 м слаб. ливневой дождь 10/10 300 м
[Cb cap]
+12.9 +8.1 73 +11 +11 1010.5 1007.7
12 18.09 СЗ 6-10
{12}
10 км {ливн. осадки} 9/9 300 м
[Sc]
+12.4 +6.7 68 +10 +10 1012.5 1009.6
15 18.09 СЗ 6-10
{13}
4000 м слаб. ливневой дождь 10/10 300 м
[Cb cap]
+11.4 +7.2 75 +9 +9 1014.1 1011.2 5
18 18.09 СЗ 4-8
{11}
10 км {ливн. осадки} 8/8 300 м
[Sc]
+12.0 +6.3 68 +10 +10 1015.1 1012.2 +14.4 2
21 18.09 СЗ 3-5
{14}
4000 м слаб. ливневой дождь 10/10 300 м
[Cb cap]
+10.5 +5.6 72 +9 +9 1015.9 1013.0
00 19.09 З 3-5
{9}
10 км {ливн. осадки} 10/10 300 м
[Sc]
+9.7 +6.3 79 +7 +7 1016.9 1014.0
03 19.09 СВ 1-2
{9}
10 км {ливн. осадки} 10/10 300 м
[Sc]
+8.4 +7.2 92 +8 +8 1017.7 1014.8 +7.5 3
06 19.09 Ю 2-2
{9}
10 км {ливн. осадки} 10/10 300 м
[Sc]
+8.6 +7.7 94 +7 +7 1018.9 1016.0 +7.3 4
09 19.09 СЗ 3-6
{7}
10 км {ливн. осадки} 8/8 300 м
[Cu Sc]
+13.6 +8.7 72 +13 +14 1020.4 1017.5
12 19.09 СЗ 6-10
{10}
10 км {ливн. осадки} 8/8 300 м
[Cu Sc]
+15.0 +6.3 56 +13 +14 1020.6 1017.7
15 19.09 СЗ 5-8
{12}
10 км {ливн. осадки} 6/6 300 м
[Cu Sc]
+13.0 +7.0 67 +11 +11 1021.2 1018.3 1
18 19.09 СЗ 5-9
{12}
10 км {ливн. осадки} 3/3 300 м
[Sc]
+11.4 +5.4 67 +9 +9 1022.5 1019.6 +16.6 0.0
21 19.09 СЗ 5-9
{10}
10 км 3/3 300 м
[Sc]
+11.2 +3.4 59 +9 +9 1022.8 1019.9
00 20.09 СЗ 3-5
{9}
10 км 4/4 300 м
[Sc]
+10.8 +4.7 66 +9 +9 1023.2 1020.3
03 20.09 С 2-4
{9}
10 км 3/3 300 м
[Sc]
+9.6 +5.2 74 +8 +8 1023.4 1020.5 +9.5
06 20.09 С 2-5
{6}
10 км 8/4 300 м
[Cu Sc Ci fib]
+12.1 +3.6 56 +11 +12 1023.3 1020.4 +5.7
09 20.09 СЗ 3-5
{6}
10 км 9/4 300 м
[Cu Sc Ci fib]
+13.7 +3.9 52 +13 +15 1024.3 1021.4

 

Местоположение метеостанции Мамоново (Калининградская область, Россия): широта 54.47 долгота 19.93 высота над уровнем моря 23 м.

В архиве по умолчанию представлена погода в Мамоново за последнюю неделю. Архивные данные за месяц целиком и за предыдущие месяцы, начиная с января 2011 года, Вы можете получить, выбрав интересующий диапазон дат из раскрывающегося списка и нажав кнопку "Ввод!".


*Определитесь, кто Вы:
робот инопланетянин человек

Внимание! Время в таблицах - всемирное. Для получения местного времени необходимо прибавить поправку, которая равна 2 ч.

Смотрите также архив погоды в соседних городах и на ближайших метеорологических станциях:

Погода в Балтийске (Калининградская область, Россия) (20 км)
Погода в Рыбном Порту (Калининградская область, Россия) (42 км)
Погода в Эльблонге (Польша) (47 км)
Погода в Калининграде (Калининградская область, Россия) (51 км)
Погода в Пионерском (Калининградская область, Россия) (56 км)
Погода в Хеле (Польша) (73 км)
Погода в Ольштыне (Польша) (84 км)
Погода в Железнодорожном (Калининградская область, Россия) (89 км)
Погода на Авиабазе Гдыня-Оксывье (Польша) (92 км)
Погода в Рыбачем (Калининградская область, Россия) (96 км)

Пояснения к столбцам:

Ветер - указаны скорость ветра в м/с - средняя за 10 мин, порывы в срок и между сроками (в фигурных скобках) и направление, откуда дует ветер: С - северный, СВ - северо-восточный, В - восточный, ЮВ - юго-восточный, Ю - южный, ЮЗ - юго-западный, З - западный, СЗ - северо-западный.
Видимость - горизонтальная дальность видимости в метрах или километрах. При видимости от 1 до 10 км при отсутствии осадков обычно наблюдается дымка, при ухудшении видимости до 1 км и менее - туман. В сухую погоду видимость может ухудшаться дымом, пылью или мглою.
Явления - указаны атмосферные явления, наблюдавшиеся в срок или в последний час перед сроком; фигурными скобками обозначены явления, наблюдавшиеся между сроками (за 1-3 часа до срока); квадратными скобками обозначены град или гололедные отложения с указанием их диаметра в мм.
Облачность - указаны через наклонную черту общая и нижняя облачность в баллах и высота нижней границы облаков в метрах; квадратными скобками обозначены формы облаков: Ci - перистые, Cs - перисто-слоистые, Cc - перисто-кучевые, Ac - высококучевые, As - высокослоистые, Sc - слоисто-кучевые, Ns - слоисто-дождевые, Cu - кучевые, Cb - кучево-дождевые. Подробнее классификацию облаков см. в Атласе облаков (PDF).
T - Температура воздуха - температура, измеренная на высоте 2 м над землей.
Td - Температура точки росы - температура, при понижении до которой содержащийся в воздухе водяной пар достигнет насыщения.
f - Относительная влажность воздуха - влажноcть воздуха, измеренная на высоте 2 м над землей.
Te - Эффективная температура - температура, которую ощущает одетый по сезону человек в тени. Характеристика душности погоды. При расчете учитывается влияние влажности воздуха и скорости ветра на теплоощущения человека.
Tes - Эффективная температура на солнце - температура, которую ощущает человек, с поправкой на солнечный нагрев. Характеристика знойности погоды. Зависит от высоты солнца над горизонтом, облачности и скорости ветра. Ночью, в пасмурную погоду, а также при ветре 12 м/с и более поправка равна нулю.
P - Атмосферное давление - приведенное к уровню моря атмосферное давление.
Po - Атмосферное давление - измеренное на уровне метеостанции атмосферное давление.
Tmin - Минимальная температура - минимум температуры воздуха на высоте 2 м над землей.
Tmax - Максимальная температура - максимум температуры воздуха на высоте 2 м над землей.
R - Количество осадков - Количество выпавших осадков за период времени, мм. При наведении курсора мыши на число - период времени, за который выпало указанное количество осадков.
R24 - Количество осадков - Количество выпавших осадков за 24 часа, мм.
S - Снежный покров - Высота снежного покрова, см. При наведении курсора мыши на число - состояние снежного покрова и степень покрытия местности в баллах.